Find Lopen

NORAD ID: 60473 Int'l Des: 2024-149 Owner: ARRAY Country: US operational
LEOCIRCULARRETROGRADESSO

リアルタイム位置

3D地球を読み込み中...

Lopenについて

説明を読み込み中...

次回通過

Passes for default location (London). Set your location on the main map for personalized predictions.

高度履歴

Loading altitude history...

軌道要素

1 60473U 24149F 26106.22255820 .00008526 00000-0 23090-3 0 9999
2 60473 97.3788 189.1919 0002869 113.6297 246.5249 15.37916686 92731
Epoch: Apr 16, 2026 • Age: 11 hours

現在のステータス

高度 478.2 km
速度 7.62 km/s
衛星直下点 -62.34°S, 119.08°E
打ち上げ日 Aug 16, 2024
運用期間 1.6 years
タイプ other

技術仕様

分類 Payload
質量 1.83 kg
乾燥質量 1.83 kg
総質量 1.83 kg
長さ 0.10 m
直径 0.10 m
スパン 0.18 m
形状 Box
製造者 ARRAY
バスタイプ Cubesat 1.5U
フェーズステータス In Orbit
所有者/国 ARRAY/US

Most Searched